DW5479 Weather Reports


time (UTC)temp
F
wind
direction
speed
knots
gust
knots
rain 1hr
in
rain 24hr
in
rain mn
in
humidity
%
barometer
mb
20260510094545 68 144 1.7 3.5 0.00 0.01 0.00 86 1009.8
20260510093049 68 139 0.9 2.6 0.00 0.01 0.00 85 1009.9
20260510091602 69 183 0.9 2.6 0.00 0.01 0.00 85 1010.1
20260510090023 70 158 0.0 2.6 0.00 0.01 0.00 84 1009.9
20260510084544 70 165 0.0 1.7 0.00 0.01 0.00 84 1009.6
20260510083055 70 173 0.0 0.0 0.00 0.01 0.00 83 1009.7
20260510081510 71 160 0.0 1.7 0.00 0.01 0.00 82 1009.8
20260510080029 71 186 0.0 1.7 0.00 0.01 0.00 80 1009.6
20260510074549 72 170 0.0 1.7 0.00 0.01 0.00 79 1009.3
20260510073007 72 172 1.7 4.3 0.00 0.01 0.00 79 1009.3
20260510071524 73 172 1.7 4.3 0.00 0.01 0.00 79 1009.3
20260510070046 73 161 0.9 3.5 0.00 0.01 0.00 78 1009.3
20260510064600 73 159 2.6 5.2 0.00 0.01 0.00 77 1009.3
20260510063017 74 172 1.7 5.2 0.00 0.01 0.00 76 1009.4
20260510061535 74 140 2.6 7.0 0.00 0.01 0.00 75 1009.5
20260510060020 75 193 2.6 6.1 0.00 0.01 0.00 75 1009.5
20260510054537 75 167 2.6 6.1 0.00 0.01 0.00 74 1009.3
20260510053004 76 153 2.6 7.0 0.00 0.01 0.00 74 1009.2
20260510051524 76 164 3.5 7.8 0.00 0.01 0.00 74 1009.2
20260510044508 77 172 3.5 7.8 0.00 0.01 0.01 74 1008.9
20260510043026 77 149 3.5 6.1 0.00 0.01 0.01 73 1009.0
20260510041543 77 181 3.5 7.0 0.00 0.01 0.01 72 1008.8
20260510040104 78 131 3.5 6.1 0.00 0.01 0.01 72 1008.9
20260510034516 78 167 3.5 6.1 0.00 0.01 0.01 71 1008.6
20260510033035 79 219 3.5 9.6 0.00 0.01 0.01 70 1008.4
20260510031558 78 161 3.5 8.7 0.00 0.01 0.01 71 1008.2
20260510030008 78 197 1.7 4.3 0.00 0.01 0.01 74 1008.1
20260510024537 78 134 0.9 2.6 0.00 0.01 0.01 74 1008.0
20260510023004 78 172 0.0 0.9 0.00 0.01 0.01 74 1007.9
20260510021521 78 148 0.0 0.0 0.00 0.01 0.01 73 1007.7
20260510020056 79 224 0.0 0.0 0.00 0.01 0.01 71 1007.5
20260510014510 80 198 0.0 0.0 0.00 0.01 0.01 69 1007.3
20260510013013 81 186 0.0 0.9 0.00 0.01 0.01 66 1007.0
20260510011539 83 176 0.0 0.9 0.00 0.01 0.01 63 1006.9
20260510010045 84 151 0.0 1.7 0.00 0.01 0.01 61 1006.8
20260510004606 85 181 0.0 4.3 0.00 0.01 0.01 58 1006.7
20260510003015 87 175 1.7 6.1 0.00 0.01 0.01 55 1006.5
20260510001552 87 144 3.5 6.1 0.00 0.01 0.01 50 1006.5
20260510000018 88 164 2.6 7.8 0.00 0.01 0.01 52 1006.4
20260509234547 88 177 3.5 9.6 0.00 0.01 0.01 47 1006.1
20260509233007 89 179 2.6 7.0 0.00 0.01 0.01 50 1006.0
20260509231531 89 167 3.5 7.8 0.00 0.01 0.01 51 1006.1
20260509230049 89 153 3.5 7.8 0.00 0.01 0.01 51 1006.3
20260509224508 89 154 1.7 6.1 0.00 0.01 0.01 52 1006.6
20260509223001 90 137 0.9 4.3 0.00 0.01 0.01 50 1006.4
20260509221523 91 181 0.9 4.3 0.00 0.01 0.01 46 1006.3
20260509220057 91 133 0.0 1.7 0.00 0.01 0.01 46 1006.4
20260509214530 90 166 1.7 4.3 0.00 0.01 0.01 44 1006.6
20260509213055 91 131 1.7 3.5 0.00 0.01 0.01 45 1006.6
20260509211507 90 143 0.9 4.3 0.00 0.01 0.01 48 1006.7
20260509210044 89 150 0.9 2.6 0.00 0.01 0.01 51 1006.9
20260509204505 90 143 1.7 4.3 0.00 0.01 0.01 51 1007.1
20260509203032 89 161 0.9 6.1 0.00 0.01 0.01 52 1007.4
20260509201550 88 168 1.7 4.3 0.00 0.01 0.01 54 1007.6
20260509200109 87 142 1.7 5.2 0.00 0.01 0.01 53 1007.9
20260509194509 87 134 0.0 5.2 0.00 0.01 0.01 62 1008.2
20260509193041 87 148 1.7 6.1 0.00 0.01 0.01 56 1008.4
20260509191516 86 164 0.9 5.2 0.00 0.01 0.01 61 1008.6
20260509190040 86 153 1.7 6.1 0.00 0.01 0.01 60 1008.7
20260509184504 86 143 3.5 7.0 0.00 0.01 0.01 62 1008.7
20260509183106 85 130 0.0 7.8 0.00 0.01 0.01 68 1009.0
20260509181509 84 153 1.7 4.3 0.00 0.01 0.01 68 1009.1
20260509180026 84 140 2.6 8.7 0.00 0.01 0.01 68 1009.4
20260509174546 83 150 0.9 6.1 0.00 0.01 0.01 71 1009.6
20260509173005 81 153 3.5 7.0 0.00 0.01 0.01 72 1009.6
20260509171536 82 153 1.7 6.1 0.00 0.01 0.01 71 1009.8
20260509170058 81 135 1.7 7.8 0.00 0.01 0.01 70 1009.7
20260509164526 81 181 2.6 6.1 0.00 0.01 0.01 75 1009.7
20260509163049 79 197 3.5 7.8 0.00 0.01 0.01 75 1009.6
20260509161504 78 171 2.6 8.7 0.00 0.01 0.01 80 1009.8
20260509160020 78 176 3.5 8.7 0.00 0.01 0.01 81 1009.7
20260509154540 77 167 0.9 5.2 0.00 0.01 0.01 83 1009.8
20260509153053 75 144 0.9 2.6 0.00 0.01 0.01 86 1010.0
20260509151504 72 191 0.9 3.5 0.00 0.01 0.01 87 1010.0
20260509150036 70 214 0.0 2.6 0.00 0.01 0.01 88 1010.0
20260509144608 69 165 0.0 1.7 0.00 0.01 0.01 88 1010.2
20260509143025 68 148 0.0 2.6 0.00 0.01 0.01 88 1010.5
20260509141551 68 155 1.7 4.3 0.00 0.01 0.01 88 1010.8
20260509140017 69 164 2.6 7.0 0.01 0.01 0.01 88 1010.4
20260509134556 72 197 1.7 6.1 0.01 0.01 0.01 87 1010.0
20260509133050 72 208 1.7 3.5 0.01 0.01 0.01 87 1009.4
20260509131501 72 207 0.9 3.5 0.01 0.01 0.01 87 1009.5
20260509130020 72 181 0.9 4.3 0.00 0.00 0.00 87 1010.0
20260509124536 72 163 0.9 5.2 0.00 0.00 0.00 87 1010.2
20260509123106 72 155 2.6 5.2 0.00 0.00 0.00 87 1010.2
20260509121520 72 181 0.9 2.6 0.00 0.00 0.00 87 1010.2
20260509120029 71 128 0.9 2.6 0.00 0.00 0.00 87 1009.8
20260509114605 71 175 0.0 0.9 0.00 0.00 0.00 87 1009.3
20260509113034 71 176 0.0 0.9 0.00 0.00 0.00 87 1008.9
20260509111604 72 184 0.0 3.5 0.00 0.00 0.00 87 1009.1
20260509110005 71 188 0.0 2.6 0.00 0.00 0.00 87 1008.8
20260509104537 72 182 0.9 3.5 0.00 0.00 0.00 87 1008.7
20260509103045 72 166 0.9 3.5 0.00 0.00 0.00 87 1009.1
20260509101622 71 171 0.9 3.5 0.00 0.00 0.00 87 1009.3
20260509100008 71 155 0.9 2.6 0.00 0.00 0.00 87 1009.1